Погода в Гёрлице

Германия     51°09′17″N   14°58′26″E
темп.,
°C
ветер,
м/с
пор.,
м/с
влажн.,
%
обл.,
%
осадки,
мм/ч
давл.,
гПа
погр.,
м
17 апреля, сб
сб1723:00+3зсз3788100 0.0 1022182
02:00+1сз2698100 0.1 1022343
05:00+2зсз3799100 1.4 1021310
08:00+2зсз35100100 2.9 1022291
11:00+2з3499100 0.3 1021247
14:00+5зсз2286100 0.4 1021628
17:00+6зюз2388100 0.0 1020337
20:00+4зюз2494100 0.1 1020125
18 апреля, вс
вс1823:00+4зюз259681 0.1 1021152
02:00+3з2296100 0.1 102151
05:00+4з119593 0.0 102024
08:00+5з1294100 0.0 1020106
11:00+7зсз228992 0.0 1020446
14:00+11зсз116983 0.2 1019875
17:00+11с227265 0.8 1018719
20:00+7ссз228882 1.4 101913
19 апреля, пн
пн1923:00+7с1192100 0.1 102014
02:00+5в119292 0.1 102010
05:00+4всв2295100 0.0 102019
08:00+7всв2489100 0.0 1020178
11:00+9всв347796 0.0 1020412
14:00+12св4565100 0.1 10181324
17:00+11ссв2478100 0.1 1018607
20:00+8с228858 0.8 101724
20 апреля, вт
вт2023:00+6с11912 0.1 101710
02:00+5ю1186100 0.1 101711
05:00+6всв1185100 0.0 101711
08:00+8в1278100 0.0 1017162
11:00+11св236766 0.1 1016734
14:00+12с236055 0.9 10151026
17:00+13в225224 0.3 10141458
20:00+10ююв226690 0.3 101426
21 апреля, ср
ср2123:00+7ю2273100 0.0 101517
02:00+7ююз227687 0.0 101437
05:00+7юз378658 0.1 1013179
08:00+8з58858 0.3 1014422
11:00+12з69615 0.0 10141313
14:00+14з684965 0.0 10121821
17:00+12зсз6763100 0.1 10121382
20:00+8сз6989100 0.8 1014904